EW7598 Weather Reports


time (UTC)temp
C
wind
direction
speed
KPH
gust
KPH
rain 1hr
cm
rain 24hr
cm
rain mn
cm
humidity
%
barometer
mb
20260508064600 8 354 0.0 0.0 0.00 1.42 0.00 75 1014.3
20260508063139 8 354 0.0 0.0 0.00 1.42 0.00 75 1014.3
20260508061556 8 354 0.0 0.0 0.00 1.42 0.00 75 1014.1
20260508060056 8 354 0.0 0.0 0.00 1.42 0.00 75 1014.1
20260508054552 8 354 0.0 0.0 0.00 1.42 0.00 75 1014.0
20260508053055 8 354 0.0 0.0 0.00 1.42 0.00 74 1014.0
20260508051612 8 355 0.0 1.6 0.00 1.42 0.00 74 1014.0
20260508050046 9 354 0.0 0.0 0.00 1.42 0.00 74 1013.8
20260508044545 9 355 0.0 0.0 0.00 1.55 0.00 74 1013.7
20260508043042 9 355 0.0 0.0 0.00 1.55 0.00 74 1013.5
20260508041543 10 355 0.0 0.0 0.00 1.55 0.00 74 1013.5
20260508040038 10 355 0.0 0.0 0.00 1.55 0.00 74 1013.6
20260508034538 10 355 0.0 0.0 0.00 1.96 1.55 74 1013.4
20260508033043 10 355 0.0 0.0 0.00 1.96 1.55 73 1013.3
20260508031537 10 355 0.0 0.0 0.00 1.96 1.55 73 1013.1
20260508030033 10 355 0.0 0.0 0.00 1.96 1.55 73 1012.9
20260508024531 10 355 0.0 0.0 0.00 1.98 1.55 73 1013.0
20260508023031 11 355 0.0 0.0 0.00 1.98 1.55 73 1012.8
20260508021531 11 355 0.0 0.0 0.00 1.98 1.55 73 1012.6
20260508020020 11 355 0.0 0.0 0.00 1.98 1.55 73 1012.3
20260508014518 11 355 0.0 0.0 0.00 1.98 1.55 72 1012.0
20260508013016 12 355 0.0 0.0 0.00 1.98 1.55 72 1011.9
20260508011516 12 355 0.0 0.0 0.00 1.98 1.55 72 1011.5
20260508010031 12 355 0.0 0.0 0.00 1.98 1.55 72 1011.2
20260508004513 12 355 0.0 1.6 0.00 2.01 1.55 72 1011.2
20260508003011 12 356 0.0 0.0 0.00 2.01 1.55 72 1011.4
20260508001511 12 356 0.0 1.6 0.00 2.01 1.55 72 1011.3
20260508000010 12 356 0.0 0.0 0.00 2.01 1.55 72 1011.3
20260507234511 12 356 0.0 0.0 0.00 2.01 1.55 72 1010.7
20260507233010 12 356 0.0 3.2 0.00 2.01 1.55 72 1010.3
20260507231509 12 301 0.0 4.8 0.03 2.01 1.55 72 1010.0
20260507230019 12 281 0.0 4.8 0.03 2.01 1.55 72 1009.9
20260507224510 12 329 0.0 3.2 0.03 2.01 1.55 73 1009.4
20260507223006 12 303 0.0 3.2 0.08 2.01 1.55 73 1009.6
20260507221506 12 354 0.0 11.3 0.15 1.98 1.52 73 1009.5
20260507220006 13 256 0.0 4.8 0.15 1.98 1.52 72 1009.2
20260507214605 12 1 1.6 8.0 0.18 1.98 1.52 72 1009.2
20260507213004 12 226 1.6 8.0 0.33 1.91 1.42 73 1009.0
20260507211503 12 344 1.6 11.3 0.30 1.83 1.37 73 1009.2
20260507210002 12 6 3.2 11.3 0.28 1.80 1.35 74 1009.0
20260507204502 12 332 0.0 17.7 0.28 1.80 1.35 75 1008.9
20260507203100 12 338 3.2 12.9 0.05 1.57 1.12 76 1009.4
20260507201614 13 18 0.0 11.3 0.00 1.52 1.07 76 1009.0
20260507200108 13 13 3.2 9.7 0.00 1.52 1.07 76 1009.1
20260507194553 13 27 3.2 16.1 0.00 1.52 1.07 74 1008.8
20260507193053 14 360 1.6 11.3 0.00 1.52 1.07 75 1008.8
20260507191552 14 209 0.0 11.3 0.03 1.52 1.07 71 1008.7
20260507190053 14 333 1.6 12.9 0.03 1.52 1.07 70 1009.1
20260507184550 13 359 1.6 11.3 0.03 1.55 1.07 71 1008.8
20260507183048 13 6 3.2 11.3 0.03 1.55 1.07 72 1009.0
20260507181545 14 358 3.2 16.1 0.00 1.52 1.04 73 1008.8
20260507180045 15 315 0.0 6.4 0.00 1.52 1.04 70 1008.8
20260507174548 16 323 0.0 16.1 0.00 1.63 1.04 69 1008.7
20260507173037 16 324 1.6 9.7 0.00 1.63 1.04 68 1008.8
20260507171534 16 335 0.0 9.7 0.00 1.63 1.04 68 1008.7
20260507170034 17 286 0.0 14.5 0.00 1.63 1.04 69 1009.0
20260507164531 18 32 3.2 14.5 0.03 1.63 1.04 67 1008.3
20260507163030 18 352 0.0 3.2 0.03 1.63 1.04 67 1008.1
20260507161530 17 18 0.0 3.2 0.05 1.63 1.04 67 1008.3
20260507160025 17 27 0.0 6.4 0.13 1.63 1.04 67 1008.4
20260507154528 17 4 0.0 0.0 0.10 1.60 1.02 67 1009.0
20260507153024 17 4 0.0 4.8 0.15 1.60 1.02 68 1009.2
20260507151526 17 1 0.0 0.0 0.20 1.57 0.99 68 1009.7
20260507150023 17 1 0.0 4.8 0.13 1.50 0.91 68 1009.5
20260507144528 17 2 0.0 3.2 0.15 1.50 0.91 68 1008.7
20260507143021 17 266 0.0 0.0 0.15 1.42 0.86 68 1009.1
20260507141521 17 266 0.0 0.0 0.10 1.37 0.79 68 1009.3
20260507140021 17 266 0.0 1.6 0.15 1.35 0.76 68 1008.6
20260507134519 17 266 0.0 1.6 0.28 1.35 0.76 68 1008.4
20260507133017 17 266 0.0 0.0 0.30 1.30 0.71 68 1008.9
20260507131524 17 266 0.0 0.0 0.30 1.24 0.66 68 1009.4
20260507130016 17 266 0.0 1.6 0.33 1.17 0.58 68 1010.0
20260507124516 17 237 0.0 0.0 0.28 1.04 0.46 68 1010.3
20260507123014 17 237 0.0 0.0 0.23 0.99 0.41 68 1009.7
20260507121513 17 237 0.0 0.0 0.18 0.94 0.36 68 1009.6
20260507120013 17 237 0.0 0.0 0.05 0.81 0.23 68 1009.7
20260507114513 17 237 0.0 0.0 0.00 0.76 0.18 68 1009.3
20260507113011 17 237 0.0 0.0 0.00 0.76 0.18 68 1009.5
20260507111511 17 237 0.0 0.0 0.00 0.76 0.18 68 1009.3
20260507110009 17 237 0.0 0.0 0.00 0.76 0.18 68 1009.5
20260507104510 17 237 0.0 0.0 0.00 0.76 0.18 68 1009.3
20260507103008 17 237 0.0 0.0 0.03 0.76 0.18 68 1009.4
20260507101508 17 156 0.0 0.0 0.03 0.76 0.18 68 1009.2
20260507100007 17 155 0.0 0.0 0.03 0.76 0.18 68 1009.1
20260507094506 17 155 0.0 0.0 0.03 0.76 0.18 68 1009.4
20260507093006 17 156 0.0 0.0 0.00 0.71 0.15 68 1009.3
20260507091507 17 156 0.0 1.6 0.00 0.71 0.15 68 1009.6
20260507090005 17 164 1.6 4.8 0.00 0.71 0.15 68 1008.8
20260507084504 17 193 0.0 0.0 0.00 0.71 0.15 68 1008.9
20260507083004 17 193 0.0 0.0 0.00 0.71 0.15 68 1009.2
20260507081503 17 188 0.0 3.2 0.00 0.71 0.15 68 1009.2
20260507080002 17 188 0.0 3.2 0.00 0.71 0.15 68 1009.4
20260507074623 17 195 0.0 1.6 0.00 0.71 0.15 68 1009.9
20260507073104 17 195 0.0 0.0 0.00 0.71 0.15 68 1009.9
20260507071559 17 195 0.0 1.6 0.03 0.71 0.15 68 1009.6